Weather History for KSUA - February, 2013

Change the Weather History Date:

Sunday, February 10, 2013

  Actual Average Record
Temperature  
Mean Temperature 72 °F -  
Max Temperature 75 °F 72 °F 77 °F (2014)
Min Temperature 69 °F 51 °F 55 °F (2015)
Cooling Degree Days 7    
Growing Degree Days 22 (Base 50)    
Moisture  
Dew Point 57 °F    
Average Humidity 61    
Maximum Humidity 73    
Minimum Humidity 50    
Precipitation  
Precipitation 0.00 in - - ()
Sea Level Pressure  
Sea Level Pressure 30.22 in    
Wind  
Wind Speed 12 mph (ESE)    
Max Wind Speed 17 mph    
Max Gust Speed 24 mph    
Visibility 10 miles    
Events      
Averages and records for this station are not official NWS values.
T = Trace of Precipitation, MM = Missing Value Source: NWS Daily Summary

Daily Weather History Graph

Daily Weather History Graph

Search for Another Location

Airport or City:

Trip Planner

Search our weather history database for the weather conditions in past years. The results will help you decide how hot, cold, wet, or windy it might be!

Date:

Astronomy

Feb. 10, 2013 Rise Set
Actual Time 7:01 AM EST 6:09 PM EST
Civil Twilight 6:37 AM EST 6:33 PM EST
Nautical Twilight 6:09 AM EST 7:00 PM EST
Astronomical Twilight 5:42 AM EST 7:28 PM EST
Moon 6:56 AM EST (2/10) 6:49 PM EST (2/10)
Length of Visible Light 11h 56m
Length of Day
11h 08m
New Moon, 0% of the Moon is Illuminated
Feb 10
New Moon
Feb 17
First Quarter
Feb 25
Full
Mar 4
Last Quarter
Mar 11
New

Hourly Weather History & Observations

Time (EST) Temp. Dew Point Humidity Pressure Visibility Wind Dir Wind Speed Gust Speed Precip Events Conditions
12:15 AM 71.6 °F 57.2 °F 60% 30.20 in 10.0 mi East 12.7 mph 18.4 mph N/A   Mostly Cloudy
12:35 AM 69.8 °F 57.2 °F 64% 30.20 in 10.0 mi East 17.3 mph 20.7 mph N/A   Scattered Clouds
12:55 AM 69.8 °F 57.2 °F 64% 30.20 in 10.0 mi East 12.7 mph 18.4 mph N/A   Mostly Cloudy
1:15 AM 69.8 °F 57.2 °F 64% 30.20 in 10.0 mi East 15.0 mph 18.4 mph N/A   Mostly Cloudy
1:35 AM 69.8 °F 57.2 °F 64% 30.20 in 10.0 mi East 11.5 mph 18.4 mph N/A   Scattered Clouds
1:55 AM 69.8 °F 57.2 °F 64% 30.20 in 10.0 mi East 10.4 mph - N/A   Scattered Clouds
2:15 AM 69.8 °F 55.4 °F 60% 30.20 in 10.0 mi East 12.7 mph 16.1 mph N/A   Scattered Clouds
2:35 AM 69.8 °F 57.2 °F 64% 30.19 in 10.0 mi East 6.9 mph - N/A   Scattered Clouds
2:55 AM 69.8 °F 55.4 °F 60% 30.19 in 10.0 mi East 10.4 mph - N/A   Scattered Clouds
3:15 AM 69.8 °F 57.2 °F 64% 30.19 in 10.0 mi East 11.5 mph - N/A   Scattered Clouds
3:35 AM 69.8 °F 55.4 °F 60% 30.19 in 10.0 mi East 11.5 mph - N/A   Mostly Cloudy
3:55 AM 69.8 °F 55.4 °F 60% 30.19 in 10.0 mi East 12.7 mph 17.3 mph N/A   Mostly Cloudy
4:15 AM 69.8 °F 57.2 °F 64% 30.19 in 10.0 mi East 12.7 mph - N/A   Mostly Cloudy
4:35 AM 69.8 °F 57.2 °F 64% 30.19 in 10.0 mi East 10.4 mph - N/A   Mostly Cloudy
4:55 AM 69.8 °F 55.4 °F 60% 30.19 in 10.0 mi East 13.8 mph 19.6 mph N/A   Overcast
5:15 AM 69.8 °F 57.2 °F 64% 30.20 in 10.0 mi East 10.4 mph - N/A   Scattered Clouds
6:47 AM 71.6 °F 59.0 °F 64% 30.22 in 7.0 mi ESE 10.4 mph 18.4 mph N/A   Mostly Cloudy
7:47 AM 71.6 °F 57.2 °F 60% 30.23 in 7.0 mi ESE 12.7 mph 19.6 mph N/A   Scattered Clouds
8:47 AM 73.4 °F 57.2 °F 57% 30.24 in 10.0 mi East 16.1 mph - N/A   Scattered Clouds
9:47 AM 75.2 °F 55.4 °F 50% 30.27 in 10.0 mi ESE 17.3 mph - N/A   Scattered Clouds
10:47 AM 75.2 °F 55.4 °F 50% 30.29 in 10.0 mi ESE 17.3 mph - N/A   Scattered Clouds
11:47 AM 75.2 °F 55.4 °F 50% 30.29 in 10.0 mi ESE 17.3 mph - N/A   Scattered Clouds
12:47 PM 75.2 °F 55.4 °F 50% 30.28 in 10.0 mi East 13.8 mph 21.9 mph N/A   Mostly Cloudy
1:47 PM 75.2 °F 55.4 °F 50% 30.25 in 10.0 mi East 16.1 mph 24.2 mph N/A   Mostly Cloudy
2:47 PM 73.4 °F 55.4 °F 53% 30.23 in 10.0 mi ESE 16.1 mph 23.0 mph N/A   Mostly Cloudy
3:47 PM 73.4 °F 55.4 °F 53% 30.23 in 10.0 mi ESE 13.8 mph 21.9 mph N/A   Mostly Cloudy
5:47 PM 71.6 °F 57.2 °F 60% 30.22 in 10.0 mi East 13.8 mph 19.6 mph N/A   Mostly Cloudy
6:47 PM 71.6 °F 59.0 °F 64% 30.23 in 7.0 mi ESE 11.5 mph 18.4 mph N/A   Mostly Cloudy
7:15 PM 69.8 °F 59.0 °F 68% 30.23 in 10.0 mi East 11.5 mph - N/A   Scattered Clouds
7:35 PM 71.6 °F 59.0 °F 64% 30.23 in 10.0 mi ESE 10.4 mph - N/A   Mostly Cloudy
7:55 PM 69.8 °F 59.0 °F 68% 30.24 in 10.0 mi ESE 11.5 mph - N/A   Overcast
8:15 PM 71.6 °F 59.0 °F 64% 30.24 in 10.0 mi ESE 9.2 mph 17.3 mph N/A   Mostly Cloudy
8:35 PM 69.8 °F 57.2 °F 64% 30.24 in 10.0 mi SE 6.9 mph - N/A   Scattered Clouds
8:55 PM 69.8 °F 57.2 °F 64% 30.25 in 10.0 mi SE 5.8 mph - N/A   Scattered Clouds
9:15 PM 69.8 °F 57.2 °F 64% 30.25 in 10.0 mi SE 5.8 mph - N/A   Scattered Clouds
9:35 PM 69.8 °F 57.2 °F 64% 30.25 in 10.0 mi SE 6.9 mph - N/A   Scattered Clouds
9:55 PM 69.8 °F 57.2 °F 64% 30.24 in 10.0 mi SE 10.4 mph - N/A   Scattered Clouds
10:15 PM 69.8 °F 57.2 °F 64% 30.24 in 10.0 mi SE 10.4 mph - N/A   Scattered Clouds
10:35 PM 69.8 °F 57.2 °F 64% 30.24 in 10.0 mi ESE 9.2 mph - N/A   Scattered Clouds
10:55 PM 69.8 °F 57.2 °F 64% 30.23 in 10.0 mi SE 10.4 mph - N/A   Scattered Clouds
11:15 PM 69.8 °F 57.2 °F 64% 30.23 in 10.0 mi SE 9.2 mph - N/A   Clear
11:35 PM 69.8 °F 59.0 °F 68% 30.23 in 10.0 mi SE 8.1 mph - N/A   Scattered Clouds
11:55 PM 69.8 °F 60.8 °F 73% 30.23 in 10.0 mi ESE 10.4 mph - N/A   Mostly Cloudy